RH
14 19 20 20 19 19 19 20 19 17 17 17 17 18 19 18 16 14 12 13 14 13 11 12 12 11 14 18 19 21 22 23 25 27 29 31 32 32 32 31 31 30 30 28 26 26 25 25 25 25 26 26 26 26 26 26 25 24 23 23 24 30 42 51 55 57 60 60 58 61 67 64 63 71 80 81 82 84 82 80 75 65 62 68 73 78
15 19 21 20 19 19 19 21 20 17 17 16 13 14 15 13 10 8 11 15 14 11 10 10 10 14 21 24 24 25 25 27 28 30 32 33 34 35 35 35 35 35 33 31 29 28 27 25 24 23 23 24 26 27 27 27 27 27 25 25 23 23 27 37 47 52 55 60 60 59 67 74 70 65 70 76 81 83 81 78 72 67 66 69 74 79
16 18 21 21 20 20 20 21 18 14 14 11 9 11 11 10 10 10 11 13 13 12 12 8 10 21 28 28 29 29 30 32 32 33 35 36 37 38 39 39 39 39 38 37 36 34 33 30 28 26 25 25 26 27 28 29 29 30 29 28 27 26 24 26 34 44 50 54 60 63 62 73 82 76 67 65 72 79 83 82 74 68 69 71 74 77
17 18 20 21 20 18 17 17 15 12 12 11 10 11 11 10 12 13 11 11 12 13 14 11 14 28 33 30 33 34 34 36 35 36 38 39 41 41 41 41 41 42 42 41 41 39 38 36 33 32 31 30 30 30 29 30 30 31 31 31 31 31 30 29 29 35 45 48 54 63 65 70 79 82 78 72 69 70 78 85 81 71 68 70 74 77
18 19 19 20 20 16 11 11 12 11 11 12 13 12 12 12 13 15 15 15 13 11 16 16 16 30 38 36 39 39 36 38 40 41 43 43 44 42 41 40 41 42 44 44 43 42 41 40 39 38 37 36 35 35 33 32 32 31 31 31 33 33 33 33 32 32 38 45 48 54 63 71 75 76 80 84 81 74 74 84 90 83 74 71 71 74
18 19 17 16 17 14 9 9 12 13 12 13 13 13 15 17 17 19 19 20 19 13 15 19 23 37 45 42 43 44 42 44 47 48 49 49 48 47 44 43 42 43 45 47 47 48 47 47 47 46 45 44 42 40 38 36 35 34 33 32 31 33 34 35 36 35 34 39 44 49 56 65 69 68 70 78 84 84 81 82 86 86 81 76 73 72
18 18 15 14 15 12 9 9 11 14 14 14 13 14 16 19 20 19 19 22 24 18 13 18 29 40 48 49 47 49 51 51 51 52 53 53 53 53 52 52 51 51 52 53 54 55 55 55 54 54 52 51 49 46 43 41 40 38 37 36 34 33 34 34 36 38 37 36 38 42 50 59 65 67 66 69 74 78 82 84 85 85 82 79 79 77
16 16 14 15 15 11 10 11 11 13 16 15 12 14 17 17 17 16 19 22 22 21 16 18 29 38 51 60 56 55 58 58 57 58 58 59 60 61 63 65 66 67 67 68 69 69 70 69 68 66 63 61 59 55 51 48 46 44 42 41 40 38 36 35 35 36 38 39 38 38 40 48 57 63 65 67 69 71 77 85 90 92 92 91 88 85
15 15 14 16 14 10 11 12 13 14 14 14 13 16 17 17 17 16 20 21 19 23 24 22 32 46 56 63 63 62 63 64 65 65 66 69 74 78 80 81 82 83 83 84 84 83 83 83 81 79 76 74 72 69 64 60 56 54 52 50 48 44 41 39 37 36 36 37 40 40 39 39 44 52 59 62 64 66 72 81 89 90 91 95 96 91
15 14 13 15 13 11 12 12 13 14 14 15 15 15 15 15 16 16 21 23 22 28 34 31 37 50 60 65 68 69 69 70 72 73 76 80 85 89 88 88 88 88 88 87 86 85 84 83 82 81 79 78 77 77 75 73 70 67 64 62 59 54 49 45 42 40 38 37 38 40 42 42 41 43 49 54 58 60 64 72 80 80 77 80 89 92
15 14 13 15 13 10 11 12 11 12 13 15 15 15 14 13 13 18 25 28 27 31 34 32 33 43 60 71 73 75 79 83 85 86 86 86 89 91 90 89 88 86 85 84 82 80 78 77 77 76 76 75 74 75 77 76 75 74 71 71 69 66 62 57 52 46 42 40 39 39 41 44 45 43 44 47 51 54 57 61 65 68 71 75 79 84
18 14 12 14 12 9 10 11 10 12 13 13 15 18 18 17 16 19 26 30 33 36 32 28 27 35 55 70 72 75 84 90 92 91 89 89 91 91 89 87 85 83 81 79 78 75 72 70 70 70 69 69 69 70 71 71 70 70 71 72 72 72 71 69 65 60 54 47 43 41 41 43 47 48 47 46 47 48 49 52 53 54 62 72 77 79
20 16 12 12 11 9 11 12 11 13 15 13 15 18 20 26 27 24 28 34 36 35 29 25 28 38 54 64 66 71 79 86 92 94 94 94 93 89 85 81 76 74 74 73 72 70 68 66 64 64 63 62 63 62 62 64 64 64 65 68 70 70 71 71 71 70 67 61 54 48 45 44 46 51 53 52 50 49 47 47 50 51 53 60 69 74
20 20 15 11 11 11 11 14 16 17 17 16 18 19 23 36 46 42 36 39 41 34 25 23 29 44 57 57 55 58 63 73 88 96 96 95 91 87 81 74 69 67 68 69 69 67 64 62 61 61 60 59 58 57 57 57 57 57 59 62 63 64 65 66 68 68 68 67 65 60 53 48 46 48 53 57 56 55 53 51 52 53 54 55 59 64
17 17 15 13 11 11 12 15 18 18 19 19 18 21 23 32 49 54 48 49 51 40 30 31 37 48 56 52 48 51 55 66 79 85 86 85 84 84 78 71 68 68 68 69 70 69 67 63 61 60 59 56 55 53 52 52 52 51 53 56 56 56 57 59 61 62 63 64 65 65 63 58 53 50 50 54 57 59 59 57 55 54 55 56 56 58
16 13 15 13 10 11 13 15 15 15 19 19 15 22 26 26 37 49 46 45 48 43 39 47 53 51 49 47 47 52 58 65 74 78 81 80 77 75 69 64 64 64 64 66 67 68 66 62 59 57 54 51 48 47 46 47 47 46 48 51 50 49 50 51 52 54 55 57 59 61 62 62 61 58 54 52 53 55 59 61 60 59 57 56 56 56
19 15 15 13 10 12 14 15 16 16 18 19 16 20 24 25 34 44 45 40 43 49 46 45 50 47 44 46 49 55 61 68 75 80 80 76 70 65 58 53 51 49 49 51 50 51 52 54 54 52 47 43 43 43 43 44 44 44 45 46 46 45 46 46 47 47 47 49 51 53 55 57 59 60 58 56 54 52 54 57 61 62 61 59 57 57
21 17 15 13 10 11 13 14 16 15 16 20 20 19 21 27 36 47 54 51 49 55 46 34 40 44 45 51 56 61 69 75 77 76 71 65 60 55 49 43 40 39 41 42 42 44 47 49 49 46 41 40 42 43 44 45 45 46 47 47 45 45 45 45 45 45 45 45 45 46 47 49 52 54 54 53 54 53 52 53 56 59 61 61 60 58
22 20 16 14 12 12 12 14 18 16 13 15 19 22 28 39 48 51 56 58 59 63 52 38 40 43 43 50 56 60 66 73 73 68 61 55 49 45 41 38 38 40 43 45 45 46 46 47 46 42 38 38 40 42 43 45 46 48 49 49 47 46 46 45 45 45 45 44 45 45 44 44 46 48 49 49 48 50 51 51 51 54 56 58 60 58
22 22 16 13 14 14 13 16 21 18 14 15 17 22 31 45 54 52 51 55 62 66 61 50 46 44 45 48 51 54 58 63 61 54 50 47 42 40 41 42 43 45 48 48 47 48 47 46 44 41 40 37 37 38 39 41 43 45 47 47 47 47 45 44 44 44 44 43 43 43 43 44 43 43 45 47 47 46 47 48 48 50 51 53 55 55
23 23 16 14 16 16 15 19 21 18 17 19 21 24 31 41 46 43 43 48 56 62 64 64 54 43 44 47 48 52 53 51 50 49 49 47 41 40 43 45 45 46 49 49 49 50 48 45 43 41 39 37 37 37 38 39 41 42 43 44 44 43 42 41 41 42 43 43 42 41 41 41 41 42 44 46 48 48 47 46 46 47 47 48 50 51
24 24 21 19 18 15 15 18 19 19 19 21 23 26 35 47 50 49 48 44 49 57 60 67 63 45 41 46 46 49 47 44 46 50 51 45 40 40 43 45 46 46 48 48 48 48 47 45 43 40 39 40 41 41 40 40 41 41 42 42 42 42 41 40 39 39 41 42 42 42 42 39 38 41 44 46 48 50 49 48 47 47 47 46 46 46
24 26 23 20 19 15 16 19 19 20 20 21 25 29 41 51 51 54 57 49 51 59 57 64 66 49 42 46 44 43 42 42 46 50 48 42 39 41 42 42 43 43 44 45 45 47 46 45 43 41 41 43 44 44 44 45 45 45 45 45 45 44 42 41 39 38 38 38 39 40 40 39 38 41 44 47 50 51 52 52 50 48 48 47 47 45
23 27 23 21 21 17 18 22 22 22 22 23 29 36 46 49 44 50 60 58 61 64 60 66 64 45 39 44 43 42 42 42 44 44 42 40 38 40 41 40 40 40 42 44 45 46 45 44 43 43 44 45 45 47 49 51 51 50 49 48 48 47 45 43 41 39 37 37 36 36 36 36 36 40 42 45 48 49 49 51 51 50 49 48 47 48
20 24 27 27 26 21 19 21 21 21 22 25 32 41 46 47 48 53 56 56 62 60 58 68 60 37 35 44 43 41 41 41 41 39 38 40 40 39 39 39 39 41 43 44 44 44 42 43 44 46 47 47 48 50 53 54 54 53 52 51 50 48 47 45 43 41 40 40 40 40 40 41 41 43 45 47 50 51 51 52 51 51 50 49 48 48
21 25 31 35 33 28 25 23 20 19 22 25 30 36 39 41 43 46 51 59 62 54 54 66 58 34 31 40 39 37 39 40 39 38 39 41 40 38 36 38 40 42 43 43 43 42 42 43 46 48 50 52 53 54 56 57 57 56 55 53 52 51 50 49 48 47 46 46 46 45 45 47 49 50 52 51 51 52 52 53 53 52 51 51 51 49
27 29 32 34 32 28 25 21 20 23 27 29 31 32 33 38 40 44 55 61 57 53 54 56 54 44 36 38 39 38 40 41 38 38 40 41 39 38 38 40 41 41 41 42 43 44 45 46 48 50 53 55 56 56 56 58 60 60 57 55 54 55 55 54 54 54 53 52 52 51 50 49 49 51 53 53 52 51 50 50 51 52 50 49 50 50
31 29 29 31 29 24 22 21 22 26 29 32 34 33 31 36 41 45 52 50 49 60 57 41 43 51 44 40 45 45 43 41 40 40 40 40 40 42 43 43 41 39 39 40 43 47 50 52 51 52 54 56 56 56 56 60 62 63 60 58 57 57 59 59 60 60 60 59 58 57 56 55 53 52 52 52 50 49 49 49 49 50 50 49 48 47
31 29 29 32 30 26 26 25 25 28 32 33 34 34 31 35 41 43 44 43 49 61 53 36 42 52 46 42 47 48 47 44 42 41 40 41 43 45 45 43 40 39 39 40 44 50 55 57 57 56 56 55 56 58 61 63 64 63 61 60 60 60 62 64 65 65 65 65 65 64 63 62 61 60 57 54 51 48 48 48 48 48 48 48 47 45
30 32 33 33 31 29 27 27 29 31 33 34 33 32 32 35 39 41 41 43 49 53 46 42 49 49 43 43 46 47 48 45 42 41 41 43 45 45 44 43 42 42 41 43 47 52 57 61 63 60 57 55 58 62 65 64 63 63 63 63 63 64 66 68 69 70 71 70 70 69 68 67 66 65 64 62 59 56 54 52 51 50 50 50 49 47
27 31 35 35 31 28 26 29 34 34 34 34 32 32 35 38 41 43 43 45 51 53 48 51 56 46 36 38 42 44 45 43 42 43 43 43 42 41 43 44 45 44 45 47 51 54 58 62 62 60 58 58 61 63 65 64 63 64 65 67 68 68 70 72 72 72 73 72 71 70 70 69 70 70 70 68 66 64 64 63 62 60 57 56 56 55
30 32 37 38 34 30 29 33 35 35 34 35 35 34 37 41 44 45 46 48 51 53 53 57 56 44 34 35 39 41 42 43 44 45 44 41 38 40 45 47 47 48 51 54 55 56 57 57 58 59 61 62 63 63 65 65 65 66 68 70 72 72 72 72 72 72 73 73 73 73 74 75 74 74 73 72 72 73 73 72 70 67 64 62 62 63
36 35 35 39 38 32 31 34 37 36 34 35 38 38 37 41 45 46 48 50 50 53 56 54 46 38 36 39 40 40 41 43 42 42 42 40 39 42 46 48 51 56 60 61 59 57 55 53 55 59 62 64 64 64 65 68 69 70 71 71 72 72 72 72 72 73 75 77 78 78 78 78 76 75 76 78 78 77 76 75 74 73 73 72 71 70
39 38 38 42 42 37 35 35 36 36 35 34 39 41 39 41 45 46 48 49 48 49 50 47 42 38 37 39 41 42 44 45 43 40 40 42 45 46 46 50 57 63 65 64 61 57 55 55 56 59 63 65 65 64 66 70 73 73 72 72 72 73 74 74 75 77 79 80 81 80 79 78 78 80 82 83 82 79 78 79 81 82 83 82 81 78
41 40 44 47 47 45 45 42 39 39 39 38 43 46 43 43 45 44 45 47 48 47 47 46 44 41 38 37 38 41 43 43 44 43 42 44 49 51 52 56 63 66 65 64 62 60 58 58 59 61 63 64 63 64 67 70 71 72 73 73 73 74 76 77 78 81 81 81 80 80 80 82 83 85 85 85 84 83 83 83 84 85 85 84 83 82
41 43 45 49 51 49 48 48 45 42 40 40 45 49 46 46 48 46 43 44 46 47 48 48 45 42 40 38 36 37 37 37 40 44 45 46 48 53 58 62 63 65 66 66 64 62 61 62 63 64 64 63 63 66 69 70 71 71 72 74 75 76 79 82 83 83 82 81 81 83 84 85 86 87 88 87 86 84 84 84 84 84 84 84 84 85
40 45 46 49 52 50 49 51 48 42 40 44 49 50 48 48 51 51 49 46 45 47 49 48 46 44 41 39 36 35 34 35 39 43 44 46 49 54 60 63 63 64 66 67 67 65 65 65 66 65 64 63 65 69 72 72 71 70 70 74 78 79 82 85 86 84 83 83 84 86 87 87 88 89 89 87 85 85 85 86 86 87 88 89 90 92
36 42 45 48 55 56 56 60 64 58 50 51 52 50 49 49 50 54 56 51 46 47 48 48 48 46 43 41 39 38 37 39 40 40 43 46 50 54 57 61 63 64 65 67 68 67 67 68 68 66 64 63 67 71 74 73 71 69 70 74 80 83 82 84 86 86 86 87 88 88 89 89 89 89 88 86 86 87 88 89 90 90 92 94 94 96
38 45 49 52 58 61 61 67 74 66 54 53 54 52 52 52 51 56 61 57 51 50 49 49 49 47 45 44 43 44 48 48 41 38 41 45 49 54 57 58 59 61 62 65 67 69 70 70 68 66 65 65 68 72 74 74 72 70 70 75 81 83 81 81 85 88 89 90 91 91 90 90 90 89 88 88 89 89 90 90 91 92 94 96 96 97
42 50 55 55 58 62 64 70 70 59 54 58 57 55 56 54 55 65 71 64 57 55 52 50 51 50 49 48 46 48 54 53 45 39 41 45 49 54 58 59 59 59 59 60 63 67 70 71 69 66 64 66 69 72 72 73 72 73 73 74 79 82 80 80 85 90 92 92 94 94 92 91 90 90 91 91 92 92 93 93 93 93 94 96 97 99
46 52 54 55 59 63 67 72 67 57 55 59 57 55 58 58 62 73 74 62 56 57 55 54 54 53 52 51 50 50 50 49 46 43 44 47 50 53 58 60 60 60 61 62 63 64 66 68 68 66 66 67 69 71 72 72 74 75 75 75 76 79 80 81 85 91 94 95 96 97 95 94 92 91 91 93 94 95 96 97 96 95 95 96 98 99
48 54 55 57 61 62 66 73 70 58 52 53 54 54 57 61 66 67 61 55 55 58 57 56 56 55 54 53 53 52 49 48 47 47 47 49 51 54 57 59 58 58 60 61 62 64 66 65 63 63 65 67 70 71 72 73 74 75 75 75 75 76 79 83 86 91 97 99 98 98 98 97 94 92 91 95 97 98 98 100 99 97 96 97 98 99
46 51 55 58 58 58 64 74 72 62 54 52 55 58 59 61 62 57 53 56 59 59 58 58 58 58 57 56 55 54 53 52 51 50 49 50 52 55 58 59 59 58 57 57 59 63 65 62 58 57 60 64 69 73 74 75 74 74 74 76 76 76 79 83 87 90 97 101 101 100 99 98 95 93 92 96 99 99 99 101 101 100 98 97 98 100
46 49 53 56 54 54 61 66 62 57 54 52 53 57 58 57 56 54 55 59 60 60 60 60 60 61 60 58 58 57 57 57 56 54 52 51 53 56 57 58 58 56 56 57 57 59 59 57 55 53 55 59 66 72 75 76 76 75 74 75 77 77 78 82 86 90 95 101 103 101 98 98 97 95 94 97 100 101 100 101 103 102 100 98 98 100
46 46 47 49 50 50 52 52 49 48 51 52 52 54 55 56 56 57 59 62 62 61 61 60 62 63 62 60 61 61 62 62 60 58 56 55 55 55 56 56 57 57 57 58 56 55 55 54 52 52 53 57 64 69 72 75 77 77 76 76 77 77 77 81 86 89 92 98 103 101 98 98 99 96 94 96 99 101 100 102 103 103 101 99 98 100
45 43 44 47 49 48 45 46 47 47 50 53 55 55 57 59 60 60 61 63 62 61 61 63 64 64 64 64 65 65 66 66 64 63 62 59 56 55 54 54 57 59 60 58 56 54 53 52 52 52 54 58 65 68 69 72 75 77 77 77 77 77 78 80 84 88 90 94 99 100 98 98 98 97 95 95 97 100 101 101 102 103 102 102 100 100
46 43 46 49 50 50 48 48 49 49 51 55 57 58 61 62 62 62 63 64 63 63 64 65 66 66 66 68 69 69 69 69 69 68 66 62 58 55 54 57 59 61 61 60 57 55 53 52 52 53 54 58 64 67 68 69 72 75 77 78 77 77 77 80 83 86 88 91 95 98 98 97 97 98 97 96 96 98 99 100 101 102 103 103 103 101
47 45 49 51 51 51 50 50 50 51 54 58 60 62 64 64 64 64 65 65 66 67 68 67 67 69 69 69 70 72 72 73 73 71 68 65 60 57 57 60 62 62 62 61 58 54 53 53 53 53 53 56 61 66 67 69 71 74 76 78 78 77 77 78 82 85 88 90 92 95 97 97 97 99 99 97 97 98 98 98 99 100 101 103 104 103
46 47 51 54 53 53 53 53 55 56 56 58 61 62 64 65 66 66 67 69 70 70 70 70 69 70 70 70 72 74 74 75 75 73 70 67 63 61 61 63 64 64 63 59 57 55 55 55 55 55 54 55 59 64 66 68 71 73 75 77 79 79 78 78 80 84 88 89 90 93 97 98 98 99 99 99 98 97 96 96 97 99 100 101 103 103
46 48 53 54 54 54 53 54 57 59 59 59 62 64 66 68 68 68 70 72 73 72 73 72 71 71 71 71 73 76 77 77 77 75 72 68 66 65 65 67 67 65 62 59 58 57 56 55 56 57 55 55 58 63 66 69 71 73 75 77 80 80 79 77 78 81 85 88 89 91 95 98 98 98 99 99 99 98 96 95 95 96 97 99 101 102
45 48 51 53 53 52 50 53 58 62 63 63 64 66 69 70 71 72 74 74 74 74 74 74 74 73 73 73 75 77 78 79 79 77 73 70 69 68 69 70 69 65 61 59 60 59 57 55 57 58 57 56 57 61 66 69 71 72 74 77 80 81 79 77 77 78 81 86 88 90 93 96 99 99 98 99 100 99 98 95 92 92 93 95 98 99